Home   Weather   Quito   Past weeks

Flag for Ecuador Past Weather in Quito, Ecuador — Yesterday and Last 2 Weeks

Now
50 °F

Broken clouds.


Feels Like: 49 °F
Forecast: 52 / 81 °F
Wind: 3 mph from South

Location: Latacunga Airport

Current Time: Sep 25, 2016 at 7:24:06 AM

Latest Report: Sep 25, 2016 at 7:00 AM


Visibility: N/A

Pressure: 30.45 "Hg (21.65 "Hg at 2826m altitude)

Humidity: 100%

Dew Point: 50 °F

Location of QuitoLocation

Past Weather in Quito — Graph

°F

Quito Temperature Yesterday

Maximum temperature yesterday: 66 °F (at 2:00 PM)
Minimum temperature yesterday: 46 °F (at 10:00 PM)
Average temperature yesterday: 56 °F

High & Low Weather Summary for the Past Weeks

 TemperatureHumidityPressure
High70 °F (Sep 13, 12:00 PM)100% (Sep 10, 6:00 AM)30.57 "Hg (Sep 10, 6:00 AM)
Low39 °F (Sep 13, 6:00 AM)38% (Sep 13, 1:00 PM)30.30 "Hg (Sep 13, 2:00 PM)
Average54 °F87%30.44 "Hg
* Reported Sep 10 6:00 AM — Sep 25 6:00 AM, Quito, Weather by CustomWeather, © 2016

Note: Actual official high and low records may vary slightly from our data, if they occured in-between our weather recording intervals... More about our weather records

Advertising

Quito Weather History for the Previous 24 Hours

Scroll right to see more
 ConditionsComfort  
Time TempWeatherWind HumidityBarometerVisibility
6:00 AM
Sun, Sep 25
50 °FPassing clouds.7 mph100%30.42 "HgN/A
5:00 AM50 °FPartly cloudy.6 mph100%30.42 "HgN/A
4:00 AM50 °FPassing clouds.5 mph100%30.42 "HgN/A
3:00 AM45 °FPassing clouds.2 mph100%30.42 "HgN/A
2:00 AM46 °FPassing clouds.3 mph100%30.45 "HgN/A
1:00 AM46 °FPassing clouds.2 mph100%30.45 "HgN/A
12:00 AM46 °FPassing clouds.2 mph100%30.48 "HgN/A
11:00 PM
Sat, Sep 24
46 °FPassing clouds.2 mph100%30.48 "HgN/A
10:00 PM46 °FPassing clouds.5 mph100%30.48 "HgN/A
9:00 PM52 °FPassing clouds.7 mph100%30.45 "HgN/A
8:00 PM54 °FPassing clouds.13 mph100%30.42 "HgN/A
7:00 PM55 °FPassing clouds.12 mph94%30.39 "HgN/A
6:00 PM59 °FScattered clouds.16 mph63%30.39 "HgN/A
5:00 PM66 °FScattered clouds.14 mph52%30.36 "HgN/A
4:00 PM63 °FScattered clouds.16 mph59%30.36 "HgN/A
3:00 PM64 °FScattered clouds.22 mph60%30.39 "HgN/A
2:00 PM66 °FScattered clouds.22 mph60%30.39 "HgN/A
1:00 PM63 °FPartly sunny.20 mph59%30.42 "HgN/A
12:00 PM64 °FScattered clouds.18 mph60%30.45 "HgN/A
11:00 AM64 °FScattered clouds.17 mph64%30.48 "HgN/A
10:00 AM59 °FBroken clouds.15 mph82%30.51 "HgN/A
9:00 AM55 °FScattered showers. Broken clouds.13 mph100%30.51 "HgN/A
8:00 AM52 °FBroken clouds.14 mph100%30.48 "HgN/A
7:00 AM50 °FPartly sunny.8 mph100%30.45 "HgN/A
Weather by CustomWeather, © 2016

See weather overviewHow to use our weather pages